Weather Roundup
Issued by NWS Corpus Christi, TX

Home | Current Version | Previous Version | Text Only | Print | Product List | Glossary On
Versions: 1 2 3 4 5 6 7 8 9 10 11 12 13 14 15 16 17 18 19 20 21 22 23 24 25 26 27 28 29 30 31 32 33 34 35 36 37 38 39 40 41 42 43 44 45 46 47 48 49 50
000
ASUS44 KCRP 310010
HRRCRP

SOUTH TEXAS REGIONAL WEATHER ROUNDUP
NATIONAL WEATHER SERVICE CORPUS CHRISTI TX
700 PM CDT MON MAY 30 2016


TXZ229>244-310100-
...CORPUS CHRISTI AREA OBSERVATIONS...

CITY           SKY/WX    TMP DP  RH WIND       PRES   REMARKS
CORPUS CHRISTI CLOUDY    84  72  67 S12       29.86R
NAS CORPUS CHR CLOUDY    83  76  79 S16       29.86R HX  91
ROCKPORT       PTSUNNY   83  73  72 SE9       29.88S
KINGSVILLE NAS PTSUNNY   85  76  74 S13       29.85F HX  94
ALICE          CLOUDY    86  72  62 MISG      29.85F HX  92
FALFURRIAS     MOSUNNY   87  71  58 S10       29.85S HX  92
$$

...VICTORIA AREA OBSERVATIONS...

CITY           SKY/WX    TMP DP  RH WIND       PRES   REMARKS
VICTORIA       MOSUNNY   83  73  72 SE14      29.90S
BEEVILLE       FAIR      85  75  71 SE6       29.87F HX  94
PLEASANTON     CLOUDY    85  67  54 CALM      29.89R
SAN ANTONIO    PTSUNNY   84  64  50 CALM      29.90F
$$

...LAREDO AREA OBSERVATIONS...

CITY           SKY/WX    TMP DP  RH WIND       PRES   REMARKS
LAREDO         PTSUNNY   88  69  53 E10       29.88S HX  92
COTULLA        PTSUNNY   88  67  49 NE6       29.88S HX  91
DEL RIO        CLOUDY    81  66  60 S16       29.86F
MCALLEN        CLOUDY    87  74  64 SE13      29.87S HX  95
HEBBRONVILLE   CLOUDY    85  70  60 SE8       29.88F HX  90
$$

...OTHER TEXAS OBSERVATIONS...

CITY           SKY/WX    TMP DP  RH WIND       PRES   REMARKS
BROWNSVILLE    MOSUNNY   82  74  76 SE14      29.88S
HOUSTON        MOSUNNY   82  71  69 SE10      29.90F
COL. STATION   SUNNY     84  67  56 SE10      29.90F
AUSTIN         MOSUNNY   85  69  58 S8        29.90R
WACO           SUNNY     84  65  52 SE8       29.89S
FORT WORTH     MOSUNNY   83  61  47 CALM      29.88F
WICHITA FALLS  SUNNY     81  65  58 SE12      29.87F
LUBBOCK        CLOUDY    80  65  59 SE16      29.90F
EL PASO        PTSUNNY   83  40  21 E6        29.92S
$$

...MARINE OBSERVATIONS...

STATION/POSITION TIME  SKY/WX   TEMP    WIND        PRES    VSBY  WAVE   SWELL
                                AIR SEA DIR/SP/G                  HT/PER HT/PER
                 (UTC)          (F)     (DEG/KT/KT) (MB)    (MI)  (FT/S) (FT/S)
PORT ARANSAS     0000            81 83  140/ 14/ 15 1012.5R
BUOY 90 E PORT A 2350            81 81  120/ 10/ 12 1012.5R         2/ 5   2/ 5
BUOY 45 SE BAFFI 2350            81 82  160/ 17/ 19 1010.4F         3/ 6   2/12
BUOY 200 E PT IS 2350                                 N/A           2/ 5   2/ 8
BUOY 15 E GALVES 2350            81 83  160/ 10/ 12 1013.1F         2/ 5   2/ 5
$$




USA.gov is the U.S. government's official web portal to all federal, state and local government web resources and services.